Regional Weather Roundup
Issued by NWS New Orleans/Baton Rouge, LA

Home | Current Version | Previous Version | Graphics & Text | Print | Product List | Glossary On
Versions: 1 2 3 4 5 6 7 8 9 10 11 12 13 14 15 16 17 18 19 20 21 22 23 24 25 26 27 28 29 30 31 32 33 34 35 36 37 38 39 40 41 42 43 44 45 46 47 48 49 50
728
ASUS44 KLIX 191507
RWRLIX
NEW ORLEANS REGIONAL WEATHER ROUNDUP
NATIONAL WEATHER SERVICE NEW ORLEANS LA
1000 AM CDT SUN APR 19 2015

NOTE: "FAIR" INDICATES FEW OR NO CLOUDS BELOW 12,000 FEET WITH NO
      SIGNIFICANT WEATHER AND/OR OBSTRUCTIONS TO VISIBILITY.
      SKY/WX - SKY CONDITION AND SIGNIFICANT WEATHER.
      TMP - AIR TEMPERATURE.     DP    - DEWPOINT TEMPERATURE.
      RH  - RELATIVE HUMIDITY.   PRES  - PRESSURE.
      HI  - HEAT INDEX.          WCI   - WIND CHILL INDEX.

*  THESE STATIONS ARE NOT NWS OR FAA STATIONS AND ARE NOT UNDER
   NWS QUALITY CONTROL.

LAZ038-040-048-061>063-065>067-069-191600-
SOUTHEAST LOUISIANA

CITY           SKY/WX    TMP DP  RH WIND       PRES   REMARKS
N.O. AUDUBON     N/A     78  72  83 MISG        N/A
N.O. INTL ARPT CLOUDY    74  66  76 SW7       29.79R
N.O. LAKEFRONT CLOUDY    76  66  71 SW13      29.79R
SLIDELL        CLOUDY    75  69  81 CALM      29.78R
BATON ROUGE    SUNNY     76  63  64 SW7       29.82R
BOOTHVILLE     CLOUDY    73  71  93 SW3       29.84R
BELLE CHASSE   CLOUDY    73  67  81 W7        29.79R
BOGALUSA*        N/A     74  67  77 W8        29.80R
GALLIANO*      PTSUNNY   75  68  80 SW5       29.81R
NEW ROADS*       N/A     73  61  66 SW3       29.83R
GONZALES*        N/A     75  69  79 SW5       29.81R
HAMMOND*       PTSUNNY   73  66  78 W6        29.81R
HOUMA*         NOT AVBL
PORT FOURCHON* SUNNY     73  68  83 SW9       29.87R

$$

MSZ070-080>082-191600-
SOUTHERN MISSISSIPPI

CITY           SKY/WX    TMP DP  RH WIND       PRES   REMARKS
MCCOMB         MOSUNNY   74  64  71 W8        29.79R
GULFPORT       CLOUDY    73  69  87 SW3       29.78S
BILOXI         CLOUDY    72  71  97 SW3       29.78S
PASCAGOULA     CLOUDY    73  70  90 CALM      29.80R
STENNIS ARPT*  MOSUNNY   72  66  83 MISG      29.78S

$$

COASTAL OBSERVATIONS
LAKE AND NEARSHORE STATIONS

STATION/POSITION TIME  TEMP    WIND        PRES    WAVE
                       AIR SEA DIR/SP/G            HT/PER
                 (UTC) (F)     (DEG/KT/KT) (MB)    (FT/S)
PASCAGOULA       1400   73     210/  3/  3 1008.3
WAVELAND YACHT   1400   72 73  260/  3/  6 1008.5
GRAND ISLE       1400   73 74  300/ 11/ 13 1009.2
SOUTHWEST PASS   1400   69 63  210/  7/ 12 1010.2
NEW CANAL        1400   72     220/  6/  9 1008.6
SHELL BEACH      1400   72 75  250/  6/ 10 1008.3

OFFSHORE STATIONS

STATION/POSITION TIME  TEMP    WIND        PRES    WAVE
                       AIR SEA DIR/SP/G            HT/PER
                 (UTC) (F)     (DEG/KT/KT) (MB)    (FT/S)
64 S DAUPHIN ISL 1450   72 74  160/ 12/ 16 1010.1    6/ 7

$$




USA.gov is the U.S. government's official web portal to all federal, state and local government web resources and services.